GW0557 Weather Reports


Display with metric or nautical units.
time (UTC)temp
F
wind
direction
speed
MPH
gust
MPH
rain 1hr
in
rain 24hr
in
rain mn
in
humidity
%
barometer
mb
20260905194607 89 0 0.0 2.0 0.00 0.00 0.00 68 1012.6
20260905193111 90 0 0.0 3.0 0.00 0.00 0.00 65 1013.0
20260905191611 90 247 1.0 6.0 0.00 0.00 0.00 64 1013.1
20260905190104 90 279 0.0 5.0 0.00 0.00 0.00 63 1013.3
20260905184613 90 202 0.0 5.0 0.00 0.00 0.00 64 1013.4
20260905183107 90 0 0.0 5.0 0.00 0.00 0.00 65 1013.7
20260905181608 89 222 1.0 6.0 0.00 0.00 0.00 66 1013.9
20260905180108 89 210 2.0 6.0 0.00 0.00 0.00 64 1013.9
20260905174604 88 232 1.0 3.0 0.00 0.00 0.00 66 1014.2
20260905173101 87 190 1.0 6.0 0.00 0.00 0.00 66 1014.2
20260905171601 86 175 2.0 6.0 0.00 0.00 0.00 67 1014.3
20260905170114 85 205 1.0 5.0 0.00 0.00 0.00 68 1014.5
20260905164606 84 175 2.0 6.0 0.00 0.00 0.00 67 1014.6
20260905163100 83 231 2.0 6.0 0.00 0.00 0.00 70 1014.8
20260905161600 83 200 2.0 5.0 0.00 0.00 0.00 68 1014.7
20260905160104 83 235 2.0 8.0 0.00 0.00 0.00 69 1014.9
20260905154605 82 198 2.0 8.0 0.00 0.00 0.00 71 1014.7
20260905153100 81 185 3.0 11.0 0.00 0.00 0.00 71 1014.7
20260905151606 80 267 4.0 12.0 0.00 0.00 0.00 72 1014.6
20260905150105 79 191 4.0 8.0 0.00 0.00 0.00 72 1014.9
20260905144602 78 169 4.0 10.0 0.00 0.00 0.00 74 1015.0
20260905143112 77 188 3.0 14.0 0.00 0.00 0.00 75 1014.7
20260905141605 76 202 4.0 9.0 0.00 0.00 0.00 76 1015.0
20260905140101 75 209 2.0 10.0 0.00 0.00 0.00 78 1015.0
20260905134603 75 218 3.0 7.0 0.00 0.00 0.00 78 1014.9
20260905133058 74 0 2.0 8.0 0.00 0.00 0.00 80 1015.0
20260905131559 73 217 2.0 6.0 0.00 0.00 0.00 80 1015.1
20260905124602 72 184 3.0 8.0 0.00 0.00 0.00 81 1015.0
20260905123105 72 212 4.0 11.0 0.00 0.00 0.00 81 1015.1
20260905121601 72 190 2.0 5.0 0.00 0.00 0.00 83 1015.0
20260905120107 71 205 0.0 5.0 0.00 0.00 0.00 83 1015.0
20260905114605 72 74 2.0 8.0 0.00 0.00 0.00 82 1014.6
20260905113106 73 94 4.0 11.0 0.00 0.00 0.00 82 1014.7
20260905111646 73 9 3.0 7.0 0.00 0.00 0.00 89 1014.3
20260905110059 73 0 0.0 0.0 0.00 0.00 0.00 89 1014.0
20260905104601 73 0 0.0 0.0 0.00 0.00 0.00 89 1013.6
20260905103105 73 0 0.0 0.0 0.00 0.00 0.00 87 1013.6
20260905101603 74 0 0.0 0.0 0.00 0.00 0.00 87 1013.8
20260905100110 74 0 0.0 0.0 0.00 0.00 0.00 86 1013.4
20260905094604 74 0 0.0 0.0 0.00 0.00 0.00 87 1013.5
20260905093104 75 0 0.0 0.0 0.00 0.00 0.00 86 1013.6
20260905091610 75 0 0.0 0.0 0.00 0.00 0.00 86 1013.5
20260905090104 75 0 0.0 0.0 0.00 0.00 0.00 86 1013.5
20260905084603 75 0 0.0 0.0 0.00 0.00 0.00 86 1013.7
20260905083102 75 0 0.0 0.0 0.00 0.00 0.00 86 1013.5
20260905081605 75 0 0.0 0.0 0.00 0.00 0.00 86 1013.4
20260905080107 75 0 0.0 0.0 0.00 0.00 0.00 87 1013.2
20260905074558 75 0 0.0 0.0 0.00 0.00 0.00 87 1012.9
20260905073103 75 0 0.0 0.0 0.00 0.00 0.00 87 1013.0
20260905071605 75 0 0.0 0.0 0.00 0.00 0.00 87 1013.1
20260905070105 75 0 0.0 0.0 0.00 0.00 0.00 87 1013.2
20260905064601 75 0 0.0 0.0 0.00 0.00 0.00 87 1013.3
20260905063104 76 0 0.0 0.0 0.00 0.00 0.00 87 1013.4
20260905061611 76 0 0.0 0.0 0.00 0.00 0.00 86 1013.8
20260905060104 76 0 0.0 0.0 0.00 0.00 0.00 86 1014.0
20260905054601 76 0 0.0 0.0 0.00 0.00 0.00 86 1014.0
20260905053104 76 0 0.0 0.0 0.00 0.00 0.00 85 1014.1
20260905051601 77 0 0.0 0.0 0.00 0.00 0.00 85 1014.2
20260905050109 77 0 0.0 0.0 0.00 0.00 0.00 85 1014.3
20260905044607 77 0 0.0 0.0 0.00 0.00 0.00 85 1014.3
20260905043103 77 0 0.0 0.0 0.00 0.00 0.00 85 1014.4
20260905041604 77 0 0.0 0.0 0.00 0.00 0.00 85 1014.4
20260905034607 78 0 0.0 0.0 0.00 0.00 0.00 84 1014.4
20260905033105 78 0 0.0 0.0 0.00 0.00 0.00 84 1014.5
20260905031602 78 0 0.0 0.0 0.00 0.00 0.00 84 1014.6
20260905030123 79 0 0.0 0.0 0.00 0.00 0.00 84 1014.5
20260905024604 79 0 0.0 0.0 0.00 0.00 0.00 83 1014.5
20260905023105 79 0 0.0 0.0 0.00 0.00 0.00 83 1014.4
20260905021600 80 0 0.0 0.0 0.00 0.00 0.00 82 1014.2
20260905020108 80 0 0.0 1.0 0.00 0.00 0.00 82 1014.2
20260905014604 81 0 0.0 1.0 0.00 0.00 0.00 81 1014.2
20260905013103 81 0 0.0 0.0 0.00 0.00 0.00 81 1014.2
20260905011601 82 0 0.0 0.0 0.00 0.00 0.00 81 1014.2
20260905010113 82 0 0.0 0.0 0.00 0.00 0.00 80 1014.1
20260905004614 83 0 0.0 0.0 0.00 0.00 0.00 79 1013.8
20260905003105 84 0 0.0 0.0 0.00 0.00 0.00 78 1013.9
20260905001604 85 0 0.0 0.0 0.00 0.00 0.00 76 1013.9
20260905000104 86 0 0.0 0.0 0.00 0.00 0.00 75 1014.0
20260904234607 87 0 0.0 0.0 0.00 0.00 0.00 74 1014.0
20260904233106 87 0 0.0 0.0 0.00 0.00 0.00 72 1014.1
20260904231602 88 0 0.0 0.0 0.00 0.00 0.00 71 1014.0
20260904230109 89 0 0.0 2.0 0.00 0.00 0.00 69 1013.9
20260904224601 89 0 0.0 2.0 0.00 0.00 0.00 69 1013.9
20260904223105 89 197 0.0 4.0 0.00 0.00 0.00 68 1013.8
20260904221612 90 0 0.0 3.0 0.00 0.00 0.00 68 1013.7
20260904220104 91 196 0.0 2.0 0.00 0.00 0.00 65 1013.5
20260904214621 91 0 0.0 4.0 0.00 0.00 0.00 61 1013.6
20260904213104 91 0 0.0 2.0 0.00 0.00 0.00 65 1013.6
20260904211618 92 0 0.0 4.0 0.00 0.00 0.00 64 1013.7
20260904210059 92 236 0.0 4.0 0.00 0.00 0.00 63 1013.8
20260904204607 92 0 0.0 2.0 0.00 0.00 0.00 62 1013.9
20260904203119 93 55 0.0 4.0 0.00 0.00 0.00 62 1014.0
20260904201602 92 0 0.0 4.0 0.00 0.00 0.00 60 1014.3
20260904200117 93 115 0.0 3.0 0.00 0.00 0.00 63 1014.8